owner,sensor,date,latitude,longitude,vertical_datum,mass_concentration_of_oxygen_in_sea_water,qcFlag 
TCOON,ioos:station:TCOON:127:1,2019-11-01T00:30:00Z,28.2598,-96.7737,1.0,15.65,11144222 
TCOON,ioos:station:TCOON:127:1,2019-11-01T01:30:00Z,28.2598,-96.7737,1.0,16.1,11144222 
TCOON,ioos:station:TCOON:127:1,2019-11-01T02:30:00Z,28.2598,-96.7737,1.0,18.17,11144222 
TCOON,ioos:station:TCOON:127:1,2019-11-01T03:30:00Z,28.2598,-96.7737,1.0,18.53,11144222 
TCOON,ioos:station:TCOON:127:1,2019-11-01T04:30:00Z,28.2598,-96.7737,1.0,16.81,11144222 
TCOON,ioos:station:TCOON:127:1,2019-11-01T05:30:00Z,28.2598,-96.7737,1.0,16.26,11144222 
TCOON,ioos:station:TCOON:127:1,2019-11-01T06:30:00Z,28.2598,-96.7737,1.0,17.91,11144222 
TCOON,ioos:station:TCOON:127:1,2019-11-01T07:30:00Z,28.2598,-96.7737,1.0,19.67,11144222 
TCOON,ioos:station:TCOON:127:1,2019-11-01T08:30:00Z,28.2598,-96.7737,1.0,18.41,11144222 
TCOON,ioos:station:TCOON:127:1,2019-11-01T09:30:00Z,28.2598,-96.7737,1.0,18.21,11144222 
TCOON,ioos:station:TCOON:127:1,2019-11-01T10:30:00Z,28.2598,-96.7737,1.0,20.32,11144222 
TCOON,ioos:station:TCOON:127:1,2019-11-01T11:30:00Z,28.2598,-96.7737,1.0,19.53,11144222 
TCOON,ioos:station:TCOON:127:1,2019-11-01T12:30:00Z,28.2598,-96.7737,1.0,16.74,11144222 
TCOON,ioos:station:TCOON:127:1,2019-11-01T13:30:00Z,28.2598,-96.7737,1.0,19.51,11144222 
TCOON,ioos:station:TCOON:127:1,2019-11-01T14:30:00Z,28.2598,-96.7737,1.0,18.48,11144222 
TCOON,ioos:station:TCOON:127:1,2019-11-01T15:30:00Z,28.2598,-96.7737,1.0,15.58,11144222 
TCOON,ioos:station:TCOON:127:1,2019-11-01T16:30:00Z,28.2598,-96.7737,1.0,20.01,11144222 
TCOON,ioos:station:TCOON:127:1,2019-11-01T17:30:00Z,28.2598,-96.7737,1.0,21.65,11144222 
TCOON,ioos:station:TCOON:127:1,2019-11-01T18:30:00Z,28.2598,-96.7737,1.0,21.83,11144222 
TCOON,ioos:station:TCOON:127:1,2019-11-01T19:30:00Z,28.2598,-96.7737,1.0,23.92,11144222 
TCOON,ioos:station:TCOON:127:1,2019-11-01T20:30:00Z,28.2598,-96.7737,1.0,28.51,11144222 
TCOON,ioos:station:TCOON:127:1,2019-11-01T21:30:00Z,28.2598,-96.7737,1.0,28.25,11144222 
TCOON,ioos:station:TCOON:127:1,2019-11-01T22:30:00Z,28.2598,-96.7737,1.0,30.46,11144222 
TCOON,ioos:station:TCOON:127:1,2019-11-01T23:30:00Z,28.2598,-96.7737,1.0,29.12,11144222 
TCOON,ioos:station:TCOON:127:1,2019-11-02T00:30:00Z,28.2598,-96.7737,1.0,30.93,11144222 
TCOON,ioos:station:TCOON:127:1,2019-11-02T01:30:00Z,28.2598,-96.7737,1.0,28.99,11144222 
TCOON,ioos:station:TCOON:127:1,2019-11-02T02:30:00Z,28.2598,-96.7737,1.0,26.47,11144222 
TCOON,ioos:station:TCOON:127:1,2019-11-02T03:30:00Z,28.2598,-96.7737,1.0,28.59,11144222 
TCOON,ioos:station:TCOON:127:1,2019-11-02T04:30:00Z,28.2598,-96.7737,1.0,24.75,11144222 
TCOON,ioos:station:TCOON:127:1,2019-11-02T05:30:00Z,28.2598,-96.7737,1.0,25.43,11144222 
TCOON,ioos:station:TCOON:127:1,2019-11-02T06:30:00Z,28.2598,-96.7737,1.0,28.13,11144222 
TCOON,ioos:station:TCOON:127:1,2019-11-02T14:30:00Z,28.2598,-96.7737,1.0,27.01,11144222 
TCOON,ioos:station:TCOON:127:1,2019-11-02T15:30:00Z,28.2598,-96.7737,1.0,32.7,11144222 
TCOON,ioos:station:TCOON:127:1,2019-11-02T16:30:00Z,28.2598,-96.7737,1.0,27.52,11144222 
TCOON,ioos:station:TCOON:127:1,2019-11-02T17:30:00Z,28.2598,-96.7737,1.0,35.12,11144222 
TCOON,ioos:station:TCOON:127:1,2019-11-02T18:30:00Z,28.2598,-96.7737,1.0,36.95,11144222 
TCOON,ioos:station:TCOON:127:1,2019-11-02T19:30:00Z,28.2598,-96.7737,1.0,38.41,11144222 
TCOON,ioos:station:TCOON:127:1,2019-11-02T20:30:00Z,28.2598,-96.7737,1.0,33.24,11144222 
TCOON,ioos:station:TCOON:127:1,2019-11-02T21:30:00Z,28.2598,-96.7737,1.0,41.02,11144222 
TCOON,ioos:station:TCOON:127:1,2019-11-02T22:30:00Z,28.2598,-96.7737,1.0,38.94,11144222 
TCOON,ioos:station:TCOON:127:1,2019-11-03T01:30:00Z,28.2598,-96.7737,1.0,31.35,11144222 
TCOON,ioos:station:TCOON:127:1,2019-11-03T02:30:00Z,28.2598,-96.7737,1.0,31.79,11144222 
TCOON,ioos:station:TCOON:127:1,2019-11-03T03:30:00Z,28.2598,-96.7737,1.0,37.48,11144222 
TCOON,ioos:station:TCOON:127:1,2019-11-03T04:30:00Z,28.2598,-96.7737,1.0,37.09,11144222 
TCOON,ioos:station:TCOON:127:1,2019-11-03T05:30:00Z,28.2598,-96.7737,1.0,36.93,11144222 
TCOON,ioos:station:TCOON:127:1,2019-11-03T06:30:00Z,28.2598,-96.7737,1.0,39.69,11144222 
TCOON,ioos:station:TCOON:127:1,2019-11-03T07:30:00Z,28.2598,-96.7737,1.0,34.53,11144222 
TCOON,ioos:station:TCOON:127:1,2019-11-03T08:30:00Z,28.2598,-96.7737,1.0,35.11,11144222 
TCOON,ioos:station:TCOON:127:1,2019-11-03T09:30:00Z,28.2598,-96.7737,1.0,31.65,11144222 
TCOON,ioos:station:TCOON:127:1,2019-11-03T10:30:00Z,28.2598,-96.7737,1.0,37.01,11144222 
TCOON,ioos:station:TCOON:127:1,2019-11-03T11:30:00Z,28.2598,-96.7737,1.0,38.0,11144222 
TCOON,ioos:station:TCOON:127:1,2019-11-03T12:30:00Z,28.2598,-96.7737,1.0,37.44,11144222 
TCOON,ioos:station:TCOON:127:1,2019-11-06T11:30:00Z,28.2598,-96.7737,1.0,49.37,11144222 
TCOON,ioos:station:TCOON:127:1,2019-11-06T12:30:00Z,28.2598,-96.7737,1.0,53.39,11144222 
TCOON,ioos:station:TCOON:127:1,2019-11-06T13:30:00Z,28.2598,-96.7737,1.0,54.24,11144222 
TCOON,ioos:station:TCOON:127:1,2019-11-06T14:30:00Z,28.2598,-96.7737,1.0,58.43,11144222 
TCOON,ioos:station:TCOON:127:1,2019-11-06T15:30:00Z,28.2598,-96.7737,1.0,60.0,11144222 
TCOON,ioos:station:TCOON:127:1,2019-11-06T16:30:00Z,28.2598,-96.7737,1.0,59.68,11144222 
TCOON,ioos:station:TCOON:127:1,2019-11-06T17:30:00Z,28.2598,-96.7737,1.0,12.77,11133222 
TCOON,ioos:station:TCOON:127:1,2019-11-06T18:30:00Z,28.2598,-96.7737,1.0,10.72,11133222 
TCOON,ioos:station:TCOON:127:1,2019-11-06T19:30:00Z,28.2598,-96.7737,1.0,10.95,11133222 
TCOON,ioos:station:TCOON:127:1,2019-11-06T20:30:00Z,28.2598,-96.7737,1.0,10.41,11133222 
TCOON,ioos:station:TCOON:127:1,2019-11-06T21:30:00Z,28.2598,-96.7737,1.0,11.82,11133222 
TCOON,ioos:station:TCOON:127:1,2019-11-06T22:30:00Z,28.2598,-96.7737,1.0,13.6,11133222 
TCOON,ioos:station:TCOON:127:1,2019-11-06T23:30:00Z,28.2598,-96.7737,1.0,11.69,11133222 
TCOON,ioos:station:TCOON:127:1,2019-11-07T00:30:00Z,28.2598,-96.7737,1.0,11.97,11133222 
TCOON,ioos:station:TCOON:127:1,2019-11-07T01:30:00Z,28.2598,-96.7737,1.0,11.58,11133222 
TCOON,ioos:station:TCOON:127:1,2019-11-07T02:30:00Z,28.2598,-96.7737,1.0,13.61,11133222 
TCOON,ioos:station:TCOON:127:1,2019-11-07T03:30:00Z,28.2598,-96.7737,1.0,12.19,11133222 
TCOON,ioos:station:TCOON:127:1,2019-11-07T04:30:00Z,28.2598,-96.7737,1.0,12.67,11133222 
TCOON,ioos:station:TCOON:127:1,2019-11-07T05:30:00Z,28.2598,-96.7737,1.0,12.7,11133222 
TCOON,ioos:station:TCOON:127:1,2019-11-07T06:30:00Z,28.2598,-96.7737,1.0,12.49,11133222 
TCOON,ioos:station:TCOON:127:1,2019-11-07T07:30:00Z,28.2598,-96.7737,1.0,12.27,11133222 
TCOON,ioos:station:TCOON:127:1,2019-11-07T08:30:00Z,28.2598,-96.7737,1.0,13.77,11133222 
TCOON,ioos:station:TCOON:127:1,2019-11-08T07:30:00Z,28.2598,-96.7737,1.0,10.12,11133222 
TCOON,ioos:station:TCOON:127:1,2019-11-08T08:30:00Z,28.2598,-96.7737,1.0,10.17,11133222 
TCOON,ioos:station:TCOON:127:1,2019-11-08T09:30:00Z,28.2598,-96.7737,1.0,10.33,11133222 
TCOON,ioos:station:TCOON:127:1,2019-11-08T10:30:00Z,28.2598,-96.7737,1.0,10.23,11133222 
TCOON,ioos:station:TCOON:127:1,2019-11-08T11:30:00Z,28.2598,-96.7737,1.0,10.22,11133222 
TCOON,ioos:station:TCOON:127:1,2019-11-08T12:30:00Z,28.2598,-96.7737,1.0,9.86,11111222 
TCOON,ioos:station:TCOON:127:1,2019-11-08T13:30:00Z,28.2598,-96.7737,1.0,10.06,11133222 
TCOON,ioos:station:TCOON:127:1,2019-11-08T14:30:00Z,28.2598,-96.7737,1.0,10.12,11133222 
TCOON,ioos:station:TCOON:127:1,2019-11-08T15:30:00Z,28.2598,-96.7737,1.0,10.49,11133222 
TCOON,ioos:station:TCOON:127:1,2019-11-08T16:30:00Z,28.2598,-96.7737,1.0,10.93,11133222 
TCOON,ioos:station:TCOON:127:1,2019-11-08T17:30:00Z,28.2598,-96.7737,1.0,10.35,11133222 
TCOON,ioos:station:TCOON:127:1,2019-11-08T18:30:00Z,28.2598,-96.7737,1.0,10.56,11133222 
TCOON,ioos:station:TCOON:127:1,2019-11-08T19:30:00Z,28.2598,-96.7737,1.0,10.84,11133222 
TCOON,ioos:station:TCOON:127:1,2019-11-08T20:30:00Z,28.2598,-96.7737,1.0,11.12,11133222 
TCOON,ioos:station:TCOON:127:1,2019-11-08T21:30:00Z,28.2598,-96.7737,1.0,10.54,11133222 
TCOON,ioos:station:TCOON:127:1,2019-11-08T22:30:00Z,28.2598,-96.7737,1.0,11.16,11133222 
TCOON,ioos:station:TCOON:127:1,2019-11-08T23:30:00Z,28.2598,-96.7737,1.0,10.53,11133222 
TCOON,ioos:station:TCOON:127:1,2019-11-09T00:30:00Z,28.2598,-96.7737,1.0,10.88,11133222 
TCOON,ioos:station:TCOON:127:1,2019-11-09T01:30:00Z,28.2598,-96.7737,1.0,11.03,11133222 
TCOON,ioos:station:TCOON:127:1,2019-11-09T02:30:00Z,28.2598,-96.7737,1.0,10.79,11133222 
TCOON,ioos:station:TCOON:127:1,2019-11-09T03:30:00Z,28.2598,-96.7737,1.0,10.76,11133222 
TCOON,ioos:station:TCOON:127:1,2019-11-09T04:30:00Z,28.2598,-96.7737,1.0,10.91,11133222 
TCOON,ioos:station:TCOON:127:1,2019-11-09T05:30:00Z,28.2598,-96.7737,1.0,11.03,11133222 
TCOON,ioos:station:TCOON:127:1,2019-11-09T06:30:00Z,28.2598,-96.7737,1.0,10.86,11133222 
TCOON,ioos:station:TCOON:127:1,2019-11-09T07:30:00Z,28.2598,-96.7737,1.0,11.76,11133222 
TCOON,ioos:station:TCOON:127:1,2019-11-09T08:30:00Z,28.2598,-96.7737,1.0,11.06,11133222 
TCOON,ioos:station:TCOON:127:1,2019-11-09T09:30:00Z,28.2598,-96.7737,1.0,10.82,11133222 
TCOON,ioos:station:TCOON:127:1,2019-11-09T10:30:00Z,28.2598,-96.7737,1.0,11.46,11133222 
TCOON,ioos:station:TCOON:127:1,2019-11-09T11:30:00Z,28.2598,-96.7737,1.0,11.15,11133222 
TCOON,ioos:station:TCOON:127:1,2019-11-09T12:30:00Z,28.2598,-96.7737,1.0,11.71,11133222 
TCOON,ioos:station:TCOON:127:1,2019-11-09T13:30:00Z,28.2598,-96.7737,1.0,11.45,11133222 
TCOON,ioos:station:TCOON:127:1,2019-11-09T14:30:00Z,28.2598,-96.7737,1.0,11.77,11133222 
TCOON,ioos:station:TCOON:127:1,2019-11-09T15:30:00Z,28.2598,-96.7737,1.0,11.39,11133222 
TCOON,ioos:station:TCOON:127:1,2019-11-09T16:30:00Z,28.2598,-96.7737,1.0,11.5,11133222 
TCOON,ioos:station:TCOON:127:1,2019-11-09T17:30:00Z,28.2598,-96.7737,1.0,12.27,11133222 
TCOON,ioos:station:TCOON:127:1,2019-11-09T18:30:00Z,28.2598,-96.7737,1.0,11.83,11133222 
TCOON,ioos:station:TCOON:127:1,2019-11-09T20:30:00Z,28.2598,-96.7737,1.0,12.92,11133222 
TCOON,ioos:station:TCOON:127:1,2019-11-09T21:30:00Z,28.2598,-96.7737,1.0,13.96,11133222 
TCOON,ioos:station:TCOON:127:1,2019-11-09T22:30:00Z,28.2598,-96.7737,1.0,15.96,11144222 
TCOON,ioos:station:TCOON:127:1,2019-11-09T23:30:00Z,28.2598,-96.7737,1.0,17.59,11144222 
TCOON,ioos:station:TCOON:127:1,2019-11-10T00:30:00Z,28.2598,-96.7737,1.0,18.07,11144222 
TCOON,ioos:station:TCOON:127:1,2019-11-10T01:30:00Z,28.2598,-96.7737,1.0,20.84,11144222 
TCOON,ioos:station:TCOON:127:1,2019-11-10T02:30:00Z,28.2598,-96.7737,1.0,19.2,11144222 
TCOON,ioos:station:TCOON:127:1,2019-11-10T03:30:00Z,28.2598,-96.7737,1.0,21.13,11144222 
TCOON,ioos:station:TCOON:127:1,2019-11-12T02:30:00Z,28.2598,-96.7737,1.0,11.59,11133222 
TCOON,ioos:station:TCOON:127:1,2019-11-12T03:30:00Z,28.2598,-96.7737,1.0,11.63,11133222 
TCOON,ioos:station:TCOON:127:1,2019-11-12T04:30:00Z,28.2598,-96.7737,1.0,11.15,11133222 
TCOON,ioos:station:TCOON:127:1,2019-11-12T05:30:00Z,28.2598,-96.7737,1.0,11.94,11133222 
TCOON,ioos:station:TCOON:127:1,2019-11-12T06:30:00Z,28.2598,-96.7737,1.0,11.64,11133222 
TCOON,ioos:station:TCOON:127:1,2019-11-12T07:30:00Z,28.2598,-96.7737,1.0,12.54,11133222 
TCOON,ioos:station:TCOON:127:1,2019-11-12T08:30:00Z,28.2598,-96.7737,1.0,11.52,11133222 
TCOON,ioos:station:TCOON:127:1,2019-11-12T09:30:00Z,28.2598,-96.7737,1.0,11.99,11133222 
TCOON,ioos:station:TCOON:127:1,2019-11-12T10:30:00Z,28.2598,-96.7737,1.0,11.65,11133222 
TCOON,ioos:station:TCOON:127:1,2019-11-12T11:30:00Z,28.2598,-96.7737,1.0,11.52,11133222 
TCOON,ioos:station:TCOON:127:1,2019-11-12T12:30:00Z,28.2598,-96.7737,1.0,11.68,11133222 
TCOON,ioos:station:TCOON:127:1,2019-11-12T13:30:00Z,28.2598,-96.7737,1.0,12.23,11133222 
TCOON,ioos:station:TCOON:127:1,2019-11-12T14:30:00Z,28.2598,-96.7737,1.0,11.81,11133222 
TCOON,ioos:station:TCOON:127:1,2019-11-12T15:30:00Z,28.2598,-96.7737,1.0,12.56,11133222 
TCOON,ioos:station:TCOON:127:1,2019-11-12T16:30:00Z,28.2598,-96.7737,1.0,12.97,11133222 
TCOON,ioos:station:TCOON:127:1,2019-11-12T17:30:00Z,28.2598,-96.7737,1.0,12.52,11133222 
TCOON,ioos:station:TCOON:127:1,2019-11-12T18:30:00Z,28.2598,-96.7737,1.0,12.83,11133222 
TCOON,ioos:station:TCOON:127:1,2019-11-12T19:30:00Z,28.2598,-96.7737,1.0,12.3,11133222 
TCOON,ioos:station:TCOON:127:1,2019-11-12T20:30:00Z,28.2598,-96.7737,1.0,12.67,11133222 
TCOON,ioos:station:TCOON:127:1,2019-11-12T21:30:00Z,28.2598,-96.7737,1.0,11.71,11133222 
TCOON,ioos:station:TCOON:127:1,2019-11-12T22:30:00Z,28.2598,-96.7737,1.0,12.4,11133222 
TCOON,ioos:station:TCOON:127:1,2019-11-12T23:30:00Z,28.2598,-96.7737,1.0,13.37,11133222 
TCOON,ioos:station:TCOON:127:1,2019-11-13T00:30:00Z,28.2598,-96.7737,1.0,12.41,11133222 
TCOON,ioos:station:TCOON:127:1,2019-11-13T01:30:00Z,28.2598,-96.7737,1.0,12.49,11133222 
TCOON,ioos:station:TCOON:127:1,2019-11-13T02:30:00Z,28.2598,-96.7737,1.0,13.81,11133222 
TCOON,ioos:station:TCOON:127:1,2019-11-13T03:30:00Z,28.2598,-96.7737,1.0,13.49,11133222 
TCOON,ioos:station:TCOON:127:1,2019-11-13T04:30:00Z,28.2598,-96.7737,1.0,13.28,11133222 
TCOON,ioos:station:TCOON:127:1,2019-11-13T05:30:00Z,28.2598,-96.7737,1.0,14.66,11133222 
TCOON,ioos:station:TCOON:127:1,2019-11-13T06:30:00Z,28.2598,-96.7737,1.0,13.63,11133222 
TCOON,ioos:station:TCOON:127:1,2019-11-13T07:30:00Z,28.2598,-96.7737,1.0,14.56,11133222 
TCOON,ioos:station:TCOON:127:1,2019-11-13T08:30:00Z,28.2598,-96.7737,1.0,13.77,11133222 
TCOON,ioos:station:TCOON:127:1,2019-11-13T09:30:00Z,28.2598,-96.7737,1.0,13.85,11133222 
TCOON,ioos:station:TCOON:127:1,2019-11-13T10:30:00Z,28.2598,-96.7737,1.0,13.12,11133222 
TCOON,ioos:station:TCOON:127:1,2019-11-13T11:30:00Z,28.2598,-96.7737,1.0,14.09,11133222 
TCOON,ioos:station:TCOON:127:1,2019-11-13T12:30:00Z,28.2598,-96.7737,1.0,12.92,11133222 
TCOON,ioos:station:TCOON:127:1,2019-11-13T13:30:00Z,28.2598,-96.7737,1.0,14.68,11133222 
TCOON,ioos:station:TCOON:127:1,2019-11-13T14:30:00Z,28.2598,-96.7737,1.0,13.17,11133222 
TCOON,ioos:station:TCOON:127:1,2019-11-13T15:30:00Z,28.2598,-96.7737,1.0,14.36,11133222 
TCOON,ioos:station:TCOON:127:1,2019-11-13T16:30:00Z,28.2598,-96.7737,1.0,15.28,11144222 
TCOON,ioos:station:TCOON:127:1,2019-11-13T17:30:00Z,28.2598,-96.7737,1.0,14.63,11133222 
TCOON,ioos:station:TCOON:127:1,2019-11-13T18:30:00Z,28.2598,-96.7737,1.0,14.92,11133222 
TCOON,ioos:station:TCOON:127:1,2019-11-13T19:30:00Z,28.2598,-96.7737,1.0,15.64,11144222 
TCOON,ioos:station:TCOON:127:1,2019-11-13T20:30:00Z,28.2598,-96.7737,1.0,15.91,11144222 
TCOON,ioos:station:TCOON:127:1,2019-11-13T21:30:00Z,28.2598,-96.7737,1.0,16.4,11144222 
TCOON,ioos:station:TCOON:127:1,2019-11-13T22:30:00Z,28.2598,-96.7737,1.0,16.54,11144222 
TCOON,ioos:station:TCOON:127:1,2019-11-13T23:30:00Z,28.2598,-96.7737,1.0,16.03,11144222 
TCOON,ioos:station:TCOON:127:1,2019-11-14T00:30:00Z,28.2598,-96.7737,1.0,17.48,11144222 
TCOON,ioos:station:TCOON:127:1,2019-11-14T01:30:00Z,28.2598,-96.7737,1.0,16.18,11144222 
TCOON,ioos:station:TCOON:127:1,2019-11-14T02:30:00Z,28.2598,-96.7737,1.0,15.7,11144222 
TCOON,ioos:station:TCOON:127:1,2019-11-14T03:30:00Z,28.2598,-96.7737,1.0,16.84,11144222 
TCOON,ioos:station:TCOON:127:1,2019-11-14T04:30:00Z,28.2598,-96.7737,1.0,16.75,11144222 
TCOON,ioos:station:TCOON:127:1,2019-11-14T05:30:00Z,28.2598,-96.7737,1.0,17.16,11144222 
TCOON,ioos:station:TCOON:127:1,2019-11-14T06:30:00Z,28.2598,-96.7737,1.0,17.0,11144222 
TCOON,ioos:station:TCOON:127:1,2019-11-14T07:30:00Z,28.2598,-96.7737,1.0,16.34,11144222 
TCOON,ioos:station:TCOON:127:1,2019-11-14T08:30:00Z,28.2598,-96.7737,1.0,16.34,11144222 
TCOON,ioos:station:TCOON:127:1,2019-11-14T09:30:00Z,28.2598,-96.7737,1.0,16.37,11144222 
TCOON,ioos:station:TCOON:127:1,2019-11-14T10:30:00Z,28.2598,-96.7737,1.0,17.04,11144222 
TCOON,ioos:station:TCOON:127:1,2019-11-14T11:30:00Z,28.2598,-96.7737,1.0,16.9,11144222 
TCOON,ioos:station:TCOON:127:1,2019-11-14T12:30:00Z,28.2598,-96.7737,1.0,18.11,11144222 
TCOON,ioos:station:TCOON:127:1,2019-11-14T13:30:00Z,28.2598,-96.7737,1.0,16.44,11144222 
TCOON,ioos:station:TCOON:127:1,2019-11-14T14:30:00Z,28.2598,-96.7737,1.0,16.57,11144222 
TCOON,ioos:station:TCOON:127:1,2019-11-14T15:30:00Z,28.2598,-96.7737,1.0,17.38,11144222 
TCOON,ioos:station:TCOON:127:1,2019-11-14T16:30:00Z,28.2598,-96.7737,1.0,18.22,11144222 
TCOON,ioos:station:TCOON:127:1,2019-11-14T17:30:00Z,28.2598,-96.7737,1.0,16.84,11144222 
TCOON,ioos:station:TCOON:127:1,2019-11-14T18:30:00Z,28.2598,-96.7737,1.0,17.87,11144222 
TCOON,ioos:station:TCOON:127:1,2019-11-14T19:30:00Z,28.2598,-96.7737,1.0,16.57,11144222 
TCOON,ioos:station:TCOON:127:1,2019-11-14T20:30:00Z,28.2598,-96.7737,1.0,18.11,11144222 
TCOON,ioos:station:TCOON:127:1,2019-11-14T21:30:00Z,28.2598,-96.7737,1.0,18.08,11144222 
TCOON,ioos:station:TCOON:127:1,2019-11-14T22:30:00Z,28.2598,-96.7737,1.0,17.95,11144222 
TCOON,ioos:station:TCOON:127:1,2019-11-14T23:30:00Z,28.2598,-96.7737,1.0,18.48,11144222 
TCOON,ioos:station:TCOON:127:1,2019-11-15T00:30:00Z,28.2598,-96.7737,1.0,19.17,11144222 
TCOON,ioos:station:TCOON:127:1,2019-11-15T01:30:00Z,28.2598,-96.7737,1.0,19.12,11144222 
TCOON,ioos:station:TCOON:127:1,2019-11-15T02:30:00Z,28.2598,-96.7737,1.0,18.75,11144222 
TCOON,ioos:station:TCOON:127:1,2019-11-15T03:30:00Z,28.2598,-96.7737,1.0,20.85,11144222 
TCOON,ioos:station:TCOON:127:1,2019-11-15T04:30:00Z,28.2598,-96.7737,1.0,18.97,11144222 
TCOON,ioos:station:TCOON:127:1,2019-11-15T05:30:00Z,28.2598,-96.7737,1.0,19.42,11144222 
TCOON,ioos:station:TCOON:127:1,2019-11-15T06:30:00Z,28.2598,-96.7737,1.0,19.71,11144222 
TCOON,ioos:station:TCOON:127:1,2019-11-15T07:30:00Z,28.2598,-96.7737,1.0,20.84,11144222 
TCOON,ioos:station:TCOON:127:1,2019-11-15T08:30:00Z,28.2598,-96.7737,1.0,18.41,11144222 
TCOON,ioos:station:TCOON:127:1,2019-11-15T09:30:00Z,28.2598,-96.7737,1.0,20.8,11144222 
TCOON,ioos:station:TCOON:127:1,2019-11-15T10:30:00Z,28.2598,-96.7737,1.0,21.48,11144222 
TCOON,ioos:station:TCOON:127:1,2019-11-15T11:30:00Z,28.2598,-96.7737,1.0,19.95,11144222 
TCOON,ioos:station:TCOON:127:1,2019-11-15T12:30:00Z,28.2598,-96.7737,1.0,20.18,11144222 
TCOON,ioos:station:TCOON:127:1,2019-11-15T13:30:00Z,28.2598,-96.7737,1.0,19.92,11144222 
TCOON,ioos:station:TCOON:127:1,2019-11-15T14:30:00Z,28.2598,-96.7737,1.0,20.21,11144222 
TCOON,ioos:station:TCOON:127:1,2019-11-15T15:30:00Z,28.2598,-96.7737,1.0,21.59,11144222 
TCOON,ioos:station:TCOON:127:1,2019-11-15T16:30:00Z,28.2598,-96.7737,1.0,20.17,11144222 
TCOON,ioos:station:TCOON:127:1,2019-11-15T17:30:00Z,28.2598,-96.7737,1.0,20.3,11144222 
TCOON,ioos:station:TCOON:127:1,2019-11-15T18:30:00Z,28.2598,-96.7737,1.0,20.49,11144222 
TCOON,ioos:station:TCOON:127:1,2019-11-15T19:30:00Z,28.2598,-96.7737,1.0,21.78,11144222 
TCOON,ioos:station:TCOON:127:1,2019-11-15T20:30:00Z,28.2598,-96.7737,1.0,21.97,11144222 
TCOON,ioos:station:TCOON:127:1,2019-11-15T21:30:00Z,28.2598,-96.7737,1.0,22.06,11144222 
TCOON,ioos:station:TCOON:127:1,2019-11-15T22:30:00Z,28.2598,-96.7737,1.0,22.88,11144222 
TCOON,ioos:station:TCOON:127:1,2019-11-15T23:30:00Z,28.2598,-96.7737,1.0,23.99,11144222 
TCOON,ioos:station:TCOON:127:1,2019-11-16T00:30:00Z,28.2598,-96.7737,1.0,22.08,11144222 
TCOON,ioos:station:TCOON:127:1,2019-11-16T01:30:00Z,28.2598,-96.7737,1.0,24.74,11144222 
TCOON,ioos:station:TCOON:127:1,2019-11-16T02:30:00Z,28.2598,-96.7737,1.0,24.93,11144222 
TCOON,ioos:station:TCOON:127:1,2019-11-16T03:30:00Z,28.2598,-96.7737,1.0,24.7,11144222 
TCOON,ioos:station:TCOON:127:1,2019-11-16T04:30:00Z,28.2598,-96.7737,1.0,26.9,11144222 
TCOON,ioos:station:TCOON:127:1,2019-11-16T05:30:00Z,28.2598,-96.7737,1.0,30.3,11144222 
TCOON,ioos:station:TCOON:127:1,2019-11-16T06:30:00Z,28.2598,-96.7737,1.0,29.03,11144222 
TCOON,ioos:station:TCOON:127:1,2019-11-16T07:30:00Z,28.2598,-96.7737,1.0,28.69,11144222 
TCOON,ioos:station:TCOON:127:1,2019-11-16T08:30:00Z,28.2598,-96.7737,1.0,25.85,11144222 
TCOON,ioos:station:TCOON:127:1,2019-11-16T09:30:00Z,28.2598,-96.7737,1.0,26.62,11144222 
TCOON,ioos:station:TCOON:127:1,2019-11-16T11:30:00Z,28.2598,-96.7737,1.0,25.03,11144222 
TCOON,ioos:station:TCOON:127:1,2019-11-16T12:30:00Z,28.2598,-96.7737,1.0,27.38,11144222 
TCOON,ioos:station:TCOON:127:1,2019-11-16T13:30:00Z,28.2598,-96.7737,1.0,27.98,11144222 
TCOON,ioos:station:TCOON:127:1,2019-11-16T17:30:00Z,28.2598,-96.7737,1.0,24.49,11144222 
TCOON,ioos:station:TCOON:127:1,2019-11-16T18:30:00Z,28.2598,-96.7737,1.0,22.78,11144222 
TCOON,ioos:station:TCOON:127:1,2019-11-16T19:30:00Z,28.2598,-96.7737,1.0,22.28,11144222 
TCOON,ioos:station:TCOON:127:1,2019-11-16T20:30:00Z,28.2598,-96.7737,1.0,21.76,11144222 
TCOON,ioos:station:TCOON:127:1,2019-11-16T21:30:00Z,28.2598,-96.7737,1.0,23.11,11144222 
TCOON,ioos:station:TCOON:127:1,2019-11-16T22:30:00Z,28.2598,-96.7737,1.0,23.75,11144222 
TCOON,ioos:station:TCOON:127:1,2019-11-16T23:30:00Z,28.2598,-96.7737,1.0,24.55,11144222 
TCOON,ioos:station:TCOON:127:1,2019-11-17T17:30:00Z,28.2598,-96.7737,1.0,27.97,11144222 
TCOON,ioos:station:TCOON:127:1,2019-11-17T18:30:00Z,28.2598,-96.7737,1.0,28.45,11144222 
TCOON,ioos:station:TCOON:127:1,2019-11-17T19:30:00Z,28.2598,-96.7737,1.0,32.36,11144222 
TCOON,ioos:station:TCOON:127:1,2019-11-17T20:30:00Z,28.2598,-96.7737,1.0,33.12,11144222 
TCOON,ioos:station:TCOON:127:1,2019-11-17T21:30:00Z,28.2598,-96.7737,1.0,35.75,11144222 
TCOON,ioos:station:TCOON:127:1,2019-11-17T22:30:00Z,28.2598,-96.7737,1.0,36.41,11144222 
TCOON,ioos:station:TCOON:127:1,2019-11-17T23:30:00Z,28.2598,-96.7737,1.0,35.73,11144222 
TCOON,ioos:station:TCOON:127:1,2019-11-18T00:30:00Z,28.2598,-96.7737,1.0,34.03,11144222 
TCOON,ioos:station:TCOON:127:1,2019-11-18T01:30:00Z,28.2598,-96.7737,1.0,37.41,11144222 
TCOON,ioos:station:TCOON:127:1,2019-11-18T02:30:00Z,28.2598,-96.7737,1.0,38.72,11144222 
TCOON,ioos:station:TCOON:127:1,2019-11-18T11:30:00Z,28.2598,-96.7737,1.0,32.55,11144222 
TCOON,ioos:station:TCOON:127:1,2019-11-18T12:30:00Z,28.2598,-96.7737,1.0,32.56,11144222 
TCOON,ioos:station:TCOON:127:1,2019-11-18T13:30:00Z,28.2598,-96.7737,1.0,33.3,11144222 
TCOON,ioos:station:TCOON:127:1,2019-11-18T14:30:00Z,28.2598,-96.7737,1.0,32.23,11144222 
TCOON,ioos:station:TCOON:127:1,2019-11-18T15:30:00Z,28.2598,-96.7737,1.0,31.74,11144222 
TCOON,ioos:station:TCOON:127:1,2019-11-18T16:30:00Z,28.2598,-96.7737,1.0,34.42,11144222 
TCOON,ioos:station:TCOON:127:1,2019-11-18T17:30:00Z,28.2598,-96.7737,1.0,11.03,11133222 
TCOON,ioos:station:TCOON:127:1,2019-11-18T18:30:00Z,28.2598,-96.7737,1.0,12.8,11133222 
TCOON,ioos:station:TCOON:127:1,2019-11-18T19:30:00Z,28.2598,-96.7737,1.0,13.91,11133222 
TCOON,ioos:station:TCOON:127:1,2019-11-18T20:30:00Z,28.2598,-96.7737,1.0,16.3,11144222 
TCOON,ioos:station:TCOON:127:1,2019-11-19T14:30:00Z,28.2598,-96.7737,1.0,19.23,11144222 
TCOON,ioos:station:TCOON:127:1,2019-11-19T15:30:00Z,28.2598,-96.7737,1.0,18.64,11144222 
TCOON,ioos:station:TCOON:127:1,2019-11-19T16:30:00Z,28.2598,-96.7737,1.0,20.17,11144222 
TCOON,ioos:station:TCOON:127:1,2019-11-19T17:30:00Z,28.2598,-96.7737,1.0,21.76,11144222 
TCOON,ioos:station:TCOON:127:1,2019-11-19T19:30:00Z,28.2598,-96.7737,1.0,29.79,11144222 
TCOON,ioos:station:TCOON:127:1,2019-11-19T20:30:00Z,28.2598,-96.7737,1.0,25.07,11144222 
TCOON,ioos:station:TCOON:127:1,2019-11-19T21:30:00Z,28.2598,-96.7737,1.0,28.5,11144222 
TCOON,ioos:station:TCOON:127:1,2019-11-19T22:30:00Z,28.2598,-96.7737,1.0,28.5,11144222 
TCOON,ioos:station:TCOON:127:1,2019-11-19T23:30:00Z,28.2598,-96.7737,1.0,18.3,11144222 
TCOON,ioos:station:TCOON:127:1,2019-11-20T00:30:00Z,28.2598,-96.7737,1.0,14.14,11133222 
TCOON,ioos:station:TCOON:127:1,2019-11-20T01:30:00Z,28.2598,-96.7737,1.0,15.59,11144222 
TCOON,ioos:station:TCOON:127:1,2019-11-20T02:30:00Z,28.2598,-96.7737,1.0,20.32,11144222 
TCOON,ioos:station:TCOON:127:1,2019-11-20T03:30:00Z,28.2598,-96.7737,1.0,26.28,11144222 
TCOON,ioos:station:TCOON:127:1,2019-11-20T04:30:00Z,28.2598,-96.7737,1.0,22.88,11144222 
TCOON,ioos:station:TCOON:127:1,2019-11-20T05:30:00Z,28.2598,-96.7737,1.0,23.4,11144222 
TCOON,ioos:station:TCOON:127:1,2019-11-20T06:30:00Z,28.2598,-96.7737,1.0,24.55,11144222 